When you browse on this site, cookies collect data to enhance your experience and personalize the content and advertising you see.
Visit our Privacy Policy to learn more. By continuing to use the site, you agree to this use of cookies and data.
  • In Austria
  • List of Countries
  • For 7 days
  • Water Temperature
  • Weather Map
  • News
  • Weather Widgets
  • user-avatar
    Login

    Hourly Weather Lipovec

    Today, 16 December, Monday

    Time Temperature Precipitation Wind Pressure Humidity
    00:00 +3°C° 0 mm 5 mps 738 mmHg 67%
    01:00 +5°C° 0 mm 5 mps 739 mmHg 65%
    02:00 +5°C° 0 mm 5 mps 738 mmHg 64%
    03:00 +5°C° 0 mm 4 mps 738 mmHg 64%
    04:00 +5°C° 0 mm 4 mps 738 mmHg 65%
    05:00 +4°C° 0 mm 4 mps 738 mmHg 66%
    06:00 +4°C° 0 mm 3 mps 739 mmHg 66%
    07:00 +4°C° 0 mm 3 mps 739 mmHg 66%
    08:00 +4°C° 0 mm 3 mps 740 mmHg 66%
    09:00 +5°C° 0 mm 3 mps 740 mmHg 63%
    10:00 +7°C° 0 mm 3 mps 740 mmHg 60%
    11:00 +7°C° 0 mm 4 mps 741 mmHg 57%
    12:00 +9°C° 0 mm 3 mps 741 mmHg 58%
    13:00 +9°C° 0 mm 3 mps 741 mmHg 59%
    14:00 +9°C° 0 mm 3 mps 741 mmHg 60%
    15:00 +9°C° 0 mm 3 mps 741 mmHg 65%
    16:00 +8°C° 0 mm 2 mps 742 mmHg 70%
    17:00 +7°C° 0 mm 2 mps 742 mmHg 74%
    18:00 +6°C° 0 mm 2 mps 742 mmHg 75%
    19:00 +6°C° 0 mm 2 mps 742 mmHg 75%
    20:00 +7°C° 0 mm 1 mps 742 mmHg 76%
    21:00 +7°C° 0 mm 1 mps 742 mmHg 76%
    22:00 +7°C° 0 mm 1 mps 742 mmHg 76%
    23:00 +6°C° 0 mm 2 mps 742 mmHg 76%

    Tomorrow, 17 December, Tuesday

    Time Temperature Precipitation Wind Pressure Humidity
    00:00 +6°C° 0 mm 2 mps 742 mmHg 78%
    01:00 +5°C° 0 mm 2 mps 742 mmHg 79%
    02:00 +5°C° 0 mm 2 mps 742 mmHg 81%
    03:00 +5°C° 0 mm 2 mps 742 mmHg 81%
    04:00 +4°C° 0 mm 3 mps 742 mmHg 81%
    05:00 +3°C° 0 mm 3 mps 741 mmHg 80%
    06:00 +3°C° 0 mm 3 mps 741 mmHg 79%
    07:00 +3°C° 0 mm 3 mps 741 mmHg 78%
    08:00 +3°C° 0 mm 3 mps 741 mmHg 77%
    09:00 +4°C° 0 mm 3 mps 741 mmHg 73%
    10:00 +5°C° 0 mm 3 mps 741 mmHg 68%
    11:00 +6°C° 0 mm 4 mps 741 mmHg 63%
    12:00 +8°C° 0 mm 3 mps 741 mmHg 62%
    13:00 +9°C° 0 mm 3 mps 741 mmHg 61%
    14:00 +9°C° 0 mm 3 mps 741 mmHg 60%
    15:00 +8°C° 0 mm 3 mps 741 mmHg 65%
    16:00 +7°C° 0 mm 3 mps 741 mmHg 69%
    17:00 +5°C° 0 mm 3 mps 740 mmHg 73%
    18:00 +5°C° 0 mm 3 mps 740 mmHg 74%
    19:00 +4°C° 0 mm 3 mps 740 mmHg 74%
    20:00 +4°C° 0 mm 3 mps 740 mmHg 75%
    21:00 +4°C° 0 mm 3 mps 740 mmHg 74%
    22:00 +5°C° 0 mm 2 mps 740 mmHg 74%
    23:00 +5°C° 0 mm 2 mps 740 mmHg 73%

    Day after tomorrow, 18 December, Wednesday

    Time Temperature Precipitation Wind Pressure Humidity
    00:00 +5°C° 0 mm 2 mps 740 mmHg 73%
    01:00 +5°C° 0 mm 2 mps 740 mmHg 72%
    02:00 +5°C° 0 mm 2 mps 740 mmHg 71%
    03:00 +5°C° 0 mm 2 mps 740 mmHg 71%
    04:00 +4°C° 0 mm 3 mps 740 mmHg 71%
    05:00 +4°C° 0 mm 3 mps 740 mmHg 71%
    06:00 +4°C° 0 mm 3 mps 740 mmHg 71%
    07:00 +4°C° 0 mm 3 mps 740 mmHg 71%
    08:00 +4°C° 0 mm 3 mps 740 mmHg 71%
    09:00 +5°C° 0 mm 3 mps 740 mmHg 65%
    10:00 +8°C° 0 mm 3 mps 740 mmHg 60%
    11:00 +9°C° 0 mm 3 mps 741 mmHg 55%
    12:00 +10°C° 0 mm 3 mps 741 mmHg 53%
    13:00 +11°C° 0 mm 3 mps 740 mmHg 51%
    14:00 +12°C° 0 mm 3 mps 740 mmHg 48%
    15:00 +11°C° 0 mm 3 mps 740 mmHg 51%
    16:00 +10°C° 0 mm 3 mps 741 mmHg 54%
    17:00 +9°C° 0 mm 3 mps 741 mmHg 57%
    18:00 +9°C° 0 mm 3 mps 741 mmHg 59%
    19:00 +9°C° 0 mm 3 mps 741 mmHg 61%
    20:00 +8°C° 0 mm 3 mps 741 mmHg 63%
    21:00 +8°C° 0 mm 3 mps 741 mmHg 67%
    22:00 +7°C° 0 mm 3 mps 742 mmHg 70%
    23:00 +7°C° 0 mm 3 mps 742 mmHg 74%

    19 December, Thursday

    Time Temperature Precipitation Wind Pressure Humidity
    00:00 +7°C° 0 mm 2 mps 742 mmHg 77%
    01:00 +6°C° 0 mm 2 mps 742 mmHg 80%
    02:00 +6°C° 0 mm 2 mps 742 mmHg 83%
    03:00 +6°C° 0 mm 2 mps 742 mmHg 84%
    04:00 +5°C° 0 mm 2 mps 742 mmHg 85%
    05:00 +5°C° 0 mm 2 mps 742 mmHg 86%
    06:00 +5°C° 0 mm 2 mps 742 mmHg 86%
    07:00 +5°C° 0 mm 2 mps 742 mmHg 87%
    08:00 +5°C° 0 mm 2 mps 742 mmHg 87%
    09:00 +6°C° 0 mm 2 mps 743 mmHg 84%
    10:00 +7°C° 0 mm 2 mps 743 mmHg 81%
    11:00 +8°C° 0 mm 2 mps 743 mmHg 77%
    12:00 +8°C° 0 mm 2 mps 743 mmHg 76%
    13:00 +9°C° 0 mm 1 mps 743 mmHg 75%
    14:00 +10°C° 0 mm 1 mps 742 mmHg 75%
    15:00 +9°C° 0 mm 1 mps 742 mmHg 79%
    16:00 +8°C° 0 mm 1 mps 742 mmHg 83%
    17:00 +7°C° 0 mm 1 mps 742 mmHg 87%
    18:00 +7°C° 0 mm 1 mps 742 mmHg 88%
    19:00 +6°C° 0 mm 2 mps 742 mmHg 89%
    20:00 +6°C° 0 mm 2 mps 742 mmHg 91%
    21:00 +5°C° 0 mm 2 mps 743 mmHg 92%
    22:00 +5°C° 0 mm 2 mps 743 mmHg 93%
    23:00 +4°C° 0 mm 2 mps 743 mmHg 94%

    20 December, Friday

    Time Temperature Precipitation Wind Pressure Humidity
    00:00 +3°C° 0 mm 3 mps 742 mmHg 95%
    01:00 +3°C° 0 mm 3 mps 742 mmHg 95%
    02:00 +3°C° 0 mm 3 mps 741 mmHg 95%
    03:00 +3°C° 0 mm 3 mps 741 mmHg 95%
    04:00 +2°C° 0 mm 3 mps 741 mmHg 96%
    05:00 +2°C° 0 mm 3 mps 740 mmHg 96%
    06:00 +1°C° 0 mm 4 mps 740 mmHg 95%
    07:00 +1°C° 0 mm 4 mps 740 mmHg 94%
    08:00 +1°C° 0 mm 4 mps 740 mmHg 94%
    09:00 +2°C° 0 mm 5 mps 740 mmHg 90%
    10:00 +2°C° 0 mm 5 mps 739 mmHg 86%
    11:00 +3°C° 0 mm 5 mps 739 mmHg 82%
    12:00 +3°C° 0 mm 5 mps 739 mmHg 84%
    13:00 +3°C° 0 mm 5 mps 738 mmHg 85%
    14:00 +3°C° 0 mm 5 mps 738 mmHg 86%
    15:00 +4°C° 0 mm 4 mps 737 mmHg 87%
    16:00 +4°C° 0 mm 4 mps 737 mmHg 88%
    17:00 +4°C° 0 mm 4 mps 737 mmHg 89%
    18:00 +4°C° 0.1 mm 4 mps 737 mmHg 90%
    19:00 +4°C° 0.1 mm 3 mps 737 mmHg 90%
    20:00 +4°C° 0.1 mm 3 mps 736 mmHg 90%
    21:00 +4°C° 0 mm 3 mps 736 mmHg 91%
    22:00 +4°C° 0 mm 3 mps 736 mmHg 91%
    23:00 +4°C° 0 mm 3 mps 736 mmHg 92%

    21 December, Saturday

    Time Temperature Precipitation Wind Pressure Humidity
    00:00 +4°C° 0 mm 3 mps 736 mmHg 93%
    01:00 +5°C° 0 mm 2 mps 736 mmHg 93%
    02:00 +5°C° 0 mm 2 mps 736 mmHg 94%
    03:00 +5°C° 0 mm 2 mps 736 mmHg 94%
    04:00 +5°C° 0 mm 2 mps 736 mmHg 95%
    05:00 +6°C° 0 mm 1 mps 736 mmHg 95%
    06:00 +6°C° 0 mm 1 mps 736 mmHg 96%
    07:00 +6°C° 0 mm 1 mps 736 mmHg 96%
    08:00 +6°C° 0 mm 1 mps 736 mmHg 97%
    09:00 +7°C° 0 mm 1 mps 736 mmHg 93%
    10:00 +6°C° 0 mm 2 mps 736 mmHg 90%
    11:00 +7°C° 0 mm 2 mps 736 mmHg 87%
    12:00 +7°C° 0 mm 3 mps 735 mmHg 84%
    13:00 +8°C° 0 mm 3 mps 735 mmHg 81%
    14:00 +8°C° 0 mm 3 mps 735 mmHg 78%
    15:00 +7°C° 0 mm 3 mps 735 mmHg 82%
    16:00 +7°C° 0 mm 3 mps 735 mmHg 85%
    17:00 +5°C° 0 mm 4 mps 734 mmHg 88%
    18:00 +5°C° 0 mm 4 mps 734 mmHg 88%
    19:00 +5°C° 0 mm 4 mps 734 mmHg 87%
    20:00 +4°C° 0 mm 4 mps 734 mmHg 87%
    21:00 +4°C° 0 mm 4 mps 734 mmHg 85%
    22:00 +4°C° 0 mm 4 mps 734 mmHg 84%
    23:00 +4°C° 0 mm 4 mps 734 mmHg 82%
    Show more